sat.trackr.live / text

‹ back to catalog

STARLINK-4399

NORAD 53469 · 2022-099E

PAYLOAD ACTIVE UNKNOWN

§ Identity

Operator
Country
US
Launch date
2022-08-12
Launch site
AFWTR
Launch vehicle
Mass (kg)
RCS (m²)

Purposes: comms

External: N2YO · Heavens-Above · Gunter

§ Orbital elements

Epoch: 2026-09-20T03:13:29.523936Z

Period
93.91 min
Inclination
97.2859°
Eccentricity
0.0000911
Mean motion
15.33436432 rev/d
Perigee alt
464.9 km
Apogee alt
466.2 km
Semi-major
6,843.7 km
B*
2.8103e-5
RAAN
20.8625°
Arg perigee
99.5939°
Mean anomaly
260.5406°
Rev number
22,549

§ Raw data

STARLINK-43991 53469U 22099E   26263.13436949  .00000832  00000+0  28103-4 0  99972 53469  97.2859  20.8625 0000911  99.5939 260.5406 15.33436432225496

JSON: /api/v1/satellites/53469 · /tle

For live sub-satellite position, see the globe view (requires WebGL).

§ Visibility from observer

Set your observer location to see the next 7 days of passes ≥ 10°. The values pass through the URL so the page stays shareable.

No JS? Fill the form by hand. The geolocation button needs JavaScript.